2016-04-17 00:05:35 r, 18.76m,0000000002Hz,0000175618c,0000000.381s, 016.7C,00002191
2016-04-17 00:15:35 r, 18.85m,0000000003Hz,0000190214c,0000000.413s, 016.7C,00002191
2016-04-17 00:25:35 r, 19.06m,0000000002Hz,0000229400c,0000000.498s, 016.7C,00002191
2016-04-17 00:35:34 r, 19.08m,0000000002Hz,0000236292c,0000000.513s, 016.7C,00002191
2016-04-17 00:45:36 r, 19.08m,0000000002Hz,0000235969c,0000000.512s, 016.7C,00002191
2016-04-17 00:55:34 r, 19.23m,0000000001Hz,0000268825c,0000000.583s, 016.7C,00002191
2016-04-17 01:05:34 r, 19.20m,0000000002Hz,0000261357c,0000000.567s, 016.7C,00002191
2016-04-17 01:15:34 r, 19.20m,0000000001Hz,0000261143c,0000000.567s, 016.7C,00002191
2016-04-17 01:25:35 r, 19.32m,0000000002Hz,0000292886c,0000000.636s, 016.7C,00002191
2016-04-17 01:35:35 r, 19.26m,0000000002Hz,0000277278c,0000000.602s, 016.7C,00002191
2016-04-17 01:45:34 r, 19.26m,0000000002Hz,0000277514c,0000000.602s, 016.7C,00002191
2016-04-17 01:55:34 r, 19.26m,0000000002Hz,0000278377c,0000000.604s, 016.7C,00002191
2016-04-17 02:05:34 r, 19.36m,0000000002Hz,0000304267c,0000000.660s, 016.7C,00002191
2016-04-17 02:15:34 r, 19.42m,0000000002Hz,0000321597c,0000000.698s, 016.7C,00002191
2016-04-17 02:25:34 r, 19.50m,0000000001Hz,0000342723c,0000000.744s, 016.7C,00002191
2016-04-17 02:35:34 r, 19.53m,0000000001Hz,0000352550c,0000000.765s, 016.7C,00002191
2016-04-17 02:45:34 r, 19.58m,0000000001Hz,0000369371c,0000000.802s, 016.7C,00002191
2016-04-17 02:55:34 r, 19.62m,0000000001Hz,0000383084c,0000000.831s, 016.4C,00002191
2016-04-17 03:05:34 r, 19.68m,0000000001Hz,0000404369c,0000000.878s, 016.4C,00002191
2016-04-17 03:15:35 r, 19.63m,0000000001Hz,0000387483c,0000000.841s, 016.4C,00002191
2016-04-17 03:25:34 r, 19.67m,0000000001Hz,0000403339c,0000000.875s, 016.1C,00002191
2016-04-17 03:35:34 r, 19.76m,0000000001Hz,0000437982c,0000000.950s, 015.7C,00002191
2016-04-17 03:45:34 r, 19.74m,0000000001Hz,0000430073c,0000000.933s, 015.7C,00002191
2016-04-17 03:55:35 r, 19.82m,0000000001Hz,0000460929c,0000001.000s, 015.4C,00002191
2016-04-17 04:05:34 r, 19.88m,0000000001Hz,0000487651c,0000001.058s, 015.4C,00002191
2016-04-17 04:15:34 r, 19.97m,0000000001Hz,0000529113c,0000001.148s, 015.4C,00002191
2016-04-17 04:25:34 r, 19.97m,0000000001Hz,0000530036c,0000001.150s, 015.4C,00002191
2016-04-17 04:35:34 r, 20.06m,0000000001Hz,0000575072c,0000001.248s, 015.4C,00002191
2016-04-17 04:45:36 r, 20.00m,0000000001Hz,0000546558c,0000001.186s, 015.4C,00002191
2016-04-17 04:55:34 r, 20.03m,0000000001Hz,0000559110c,0000001.213s, 015.4C,00002191
2016-04-17 05:05:34 r, 19.95m,0000000001Hz,0000517408c,0000001.123s, 015.4C,00002191
2016-04-17 05:15:34 r, 19.73m,0000000001Hz,0000424176c,0000000.921s, 015.4C,00002191
2016-04-17 05:25:34 r, 19.20m,0000000002Hz,0000262783c,0000000.570s, 015.4C,00002191
2016-04-17 05:35:34 r, 18.29m,0000000004Hz,0000114148c,0000000.248s, 015.4C,00002191
2016-04-17 05:45:34 r, 16.78m,0000000016Hz,0000028371c,0000000.062s, 015.4C,00002191
2016-04-17 05:55:35 r, 14.68m,0000000112Hz,0000004069c,0000000.009s, 015.4C,00002191
2016-04-17 06:05:34 r, 12.63m,0000000750Hz,0000000000c,0000000.000s, 015.4C,00002191
2016-04-17 06:15:35 r, 10.79m,0000004083Hz,0000000000c,0000000.000s, 015.4C,00002191
2016-04-17 06:25:35 r, 09.78m,0000010331Hz,0000000000c,0000000.000s, 015.4C,00002191
2016-04-17 06:35:34 r, 08.81m,0000025225Hz,0000000000c,0000000.000s, 015.4C,00002191
2016-04-17 06:45:35 r, 08.17m,0000045791Hz,0000000000c,0000000.000s, 015.4C,00002191
2016-04-17 06:55:34 r, 07.34m,0000097859Hz,0000000000c,0000000.000s, 015.7C,00002191
2016-04-17 07:05:34 r, 06.63m,0000188599Hz,0000000000c,0000000.000s, 015.7C,00002191
2016-04-17 07:15:34 r, 06.57m,0000198793Hz,0000000000c,0000000.000s, 015.7C,00002191
2016-04-17 07:25:34 r, 06.01m,0000335336Hz,0000000000c,0000000.000s, 015.7C,00002191
2016-04-17 07:35:34 r, 00.00m,0000415158Hz,0000000000c,0000000.000s, 015.7C,00002191
2016-04-17 07:45:35 r, 05.87m,0000379769Hz,0000000000c,0000000.000s, 016.1C,00002191
2016-04-17 07:55:34 r, 05.83m,0000392104Hz,0000000000c,0000000.000s, 015.7C,00002191
2016-04-17 08:05:34 r, 00.00m,0000509850Hz,0000000000c,0000000.000s, 016.1C,00002191
2016-04-17 08:15:35 r, 00.00m,0000562770Hz,0000000000c,0000000.000s, 016.1C,00002191
2016-04-17 08:25:34 r, 00.00m,0000596525Hz,0000000000c,0000000.000s, 016.1C,00002191
2016-04-17 08:35:34 r, 00.00m,0000596543Hz,0000000000c,0000000.000s, 016.4C,00002191
2016-04-17 08:45:35 r, 00.00m,0000596439Hz,0000000000c,0000000.000s, 016.4C,00002191
2016-04-17 08:55:34 r, 00.00m,0000596388Hz,0000000000c,0000000.000s, 016.4C,00002191
2016-04-17 09:05:34 r, 00.00m,0000596393Hz,0000000000c,0000000.000s, 016.7C,00002191
2016-04-17 09:15:35 r, 00.00m,0000596342Hz,0000000000c,0000000.000s, 016.7C,00002191
2016-04-17 09:25:34 r, 00.00m,0000596452Hz,0000000000c,0000000.000s, 016.7C,00002191
2016-04-17 09:35:34 r, 00.00m,0000596411Hz,0000000000c,0000000.000s, 016.7C,00002191
2016-04-17 09:45:34 r, 00.00m,0000596397Hz,0000000000c,0000000.000s, 016.7C,00002191
2016-04-17 09:55:34 r, 00.00m,0000596385Hz,0000000000c,0000000.000s, 016.4C,00002191
2016-04-17 10:05:35 r, 00.00m,0000596469Hz,0000000000c,0000000.000s, 016.7C,00002191
2016-04-17 10:15:34 r, 00.00m,0000596380Hz,0000000000c,0000000.000s, 016.7C,00002191
2016-04-17 10:25:36 r, 00.00m,0000596325Hz,0000000000c,0000000.000s, 017.0C,00002191
2016-04-17 10:35:35 r, 00.00m,0000596276Hz,0000000000c,0000000.000s, 017.4C,00002191
2016-04-17 10:45:34 r, 00.00m,0000596305Hz,0000000000c,0000000.000s, 017.7C,00002191
2016-04-17 10:55:34 r, 00.00m,0000596196Hz,0000000000c,0000000.000s, 018.0C,00002191
2016-04-17 11:05:34 r, 00.00m,0000596283Hz,0000000000c,0000000.000s, 018.0C,00002191
2016-04-17 11:15:34 r, 00.00m,0000596330Hz,0000000000c,0000000.000s, 018.0C,00002191
2016-04-17 11:25:35 r, 00.00m,0000596305Hz,0000000000c,0000000.000s, 018.3C,00002191
2016-04-17 11:35:34 r, 00.00m,0000596163Hz,0000000000c,0000000.000s, 019.3C,00002191
2016-04-17 11:45:34 r, 00.00m,0000596095Hz,0000000000c,0000000.000s, 019.6C,00002191
2016-04-17 11:55:34 r, 00.00m,0000596028Hz,0000000000c,0000000.000s, 019.9C,00002191
2016-04-17 12:05:35 r, 00.00m,0000596045Hz,0000000000c,0000000.000s, 020.3C,00002191
2016-04-17 12:15:35 r, 00.00m,0000596116Hz,0000000000c,0000000.000s, 019.9C,00002191
2016-04-17 12:25:34 r, 00.00m,0000596156Hz,0000000000c,0000000.000s, 019.9C,00002191
2016-04-17 12:35:34 r, 00.00m,0000596092Hz,0000000000c,0000000.000s, 019.9C,00002191
2016-04-17 12:45:34 r, 00.00m,0000596086Hz,0000000000c,0000000.000s, 020.6C,00002191
2016-04-17 12:55:34 r, 00.00m,0000596102Hz,0000000000c,0000000.000s, 020.6C,00002191
2016-04-17 13:05:34 r, 00.00m,0000596072Hz,0000000000c,0000000.000s, 020.3C,00002191
2016-04-17 13:15:35 r, 00.00m,0000596064Hz,0000000000c,0000000.000s, 019.9C,00002191
2016-04-17 13:25:35 r, 00.00m,0000596184Hz,0000000000c,0000000.000s, 019.9C,00002191
2016-04-17 13:35:35 r, 00.00m,0000596231Hz,0000000000c,0000000.000s, 019.6C,00002191
2016-04-17 13:45:34 r, 00.00m,0000596098Hz,0000000000c,0000000.000s, 019.6C,00002191
2016-04-17 13:55:37 r, 00.00m,0000596141Hz,0000000000c,0000000.000s, 019.6C,00002191
2016-04-17 14:05:34 r, 00.00m,0000596131Hz,0000000000c,0000000.000s, 019.9C,00002191
2016-04-17 14:15:34 r, 00.00m,0000596110Hz,0000000000c,0000000.000s, 020.3C,00002191
2016-04-17 14:25:34 r, 00.00m,0000596118Hz,0000000000c,0000000.000s, 020.3C,00002191
2016-04-17 14:35:35 r, 00.00m,0000596162Hz,0000000000c,0000000.000s, 019.9C,00002191
2016-04-17 14:45:35 r, 00.00m,0000596194Hz,0000000000c,0000000.000s, 019.6C,00002191
2016-04-17 14:55:34 r, 00.00m,0000596027Hz,0000000000c,0000000.000s, 019.9C,00002191
2016-04-17 15:05:34 r, 00.00m,0000595939Hz,0000000000c,0000000.000s, 019.9C,00002191
2016-04-17 15:15:34 r, 00.00m,0000596063Hz,0000000000c,0000000.000s, 019.9C,00002191
2016-04-17 15:25:34 r, 00.00m,0000596148Hz,0000000000c,0000000.000s, 019.6C,00002191
2016-04-17 15:35:34 r, 00.00m,0000596107Hz,0000000000c,0000000.000s, 019.3C,00002191
2016-04-17 15:45:34 r, 00.00m,0000596172Hz,0000000000c,0000000.000s, 019.0C,00002191
2016-04-17 15:55:34 r, 00.00m,0000596219Hz,0000000000c,0000000.000s, 019.0C,00002191
2016-04-17 16:05:34 r, 00.00m,0000596187Hz,0000000000c,0000000.000s, 018.6C,00002191
2016-04-17 16:15:34 r, 00.00m,0000596239Hz,0000000000c,0000000.000s, 018.6C,00002191
2016-04-17 16:25:34 r, 00.00m,0000596216Hz,0000000000c,0000000.000s, 018.3C,00002191
2016-04-17 16:35:34 r, 00.00m,0000596238Hz,0000000000c,0000000.000s, 018.3C,00002191
2016-04-17 16:45:35 r, 00.00m,0000596202Hz,0000000000c,0000000.000s, 018.3C,00002191
2016-04-17 16:55:34 r, 00.00m,0000596308Hz,0000000000c,0000000.000s, 018.0C,00002191
2016-04-17 17:05:34 r, 00.00m,0000596268Hz,0000000000c,0000000.000s, 018.0C,00002191
2016-04-17 17:15:35 r, 00.00m,0000596241Hz,0000000000c,0000000.000s, 018.0C,00002191
2016-04-17 17:25:34 r, 00.00m,0000596289Hz,0000000000c,0000000.000s, 017.7C,00002191
2016-04-17 17:35:35 r, 00.00m,0000596345Hz,0000000000c,0000000.000s, 017.7C,00002191
2016-04-17 17:45:35 r, 00.00m,0000596263Hz,0000000000c,0000000.000s, 018.0C,00002191
2016-04-17 17:55:35 r, 00.00m,0000596291Hz,0000000000c,0000000.000s, 018.0C,00002191
2016-04-17 18:05:34 r, 00.00m,0000596268Hz,0000000000c,0000000.000s, 017.7C,00002191
2016-04-17 18:15:35 r, 00.00m,0000596341Hz,0000000000c,0000000.000s, 017.7C,00002191
2016-04-17 18:25:34 r, 00.00m,0000596339Hz,0000000000c,0000000.000s, 017.4C,00002191
2016-04-17 18:35:34 r, 00.00m,0000596322Hz,0000000000c,0000000.000s, 017.4C,00002191
2016-04-17 18:45:34 r, 00.00m,0000596415Hz,0000000000c,0000000.000s, 017.4C,00002191
2016-04-17 18:55:35 r, 00.00m,0000596453Hz,0000000000c,0000000.000s, 017.4C,00002191
2016-04-17 19:05:34 r, 00.00m,0000491389Hz,0000000000c,0000000.000s, 017.4C,00002191
2016-04-17 19:15:34 r, 00.00m,0000549319Hz,0000000000c,0000000.000s, 017.0C,00002191
2016-04-17 19:25:35 r, 00.00m,0000480714Hz,0000000000c,0000000.000s, 017.0C,00002191
2016-04-17 19:35:34 r, 05.94m,0000357381Hz,0000000000c,0000000.000s, 017.0C,00002191
2016-04-17 19:45:34 r, 06.55m,0000203126Hz,0000000000c,0000000.000s, 017.0C,00002191
2016-04-17 19:55:35 r, 07.19m,0000112819Hz,0000000000c,0000000.000s, 016.7C,00002191
2016-04-17 20:05:34 r, 07.73m,0000068920Hz,0000000000c,0000000.000s, 016.7C,00002191
2016-04-17 20:15:34 r, 08.43m,0000036071Hz,0000000000c,0000000.000s, 016.7C,00002191
2016-04-17 20:25:34 r, 09.12m,0000019063Hz,0000000000c,0000000.000s, 016.4C,00002191
2016-04-17 20:35:34 r, 10.13m,0000007541Hz,0000000000c,0000000.000s, 016.1C,00002191
2016-04-17 20:45:34 r, 11.71m,0000001751Hz,0000000000c,0000000.000s, 016.1C,00002191
2016-04-17 20:55:34 r, 13.44m,0000000354Hz,0000000000c,0000000.000s, 016.1C,00002191
2016-04-17 21:05:34 r, 15.01m,0000000083Hz,0000005562c,0000000.012s, 016.1C,00002191
2016-04-17 21:15:34 r, 16.52m,0000000021Hz,0000022169c,0000000.048s, 016.1C,00002191
2016-04-17 21:25:35 r, 17.64m,0000000008Hz,0000062487c,0000000.136s, 016.1C,00002191
2016-04-17 21:35:34 r, 17.99m,0000000006Hz,0000086135c,0000000.187s, 016.1C,00002191
2016-04-17 21:45:34 r, 17.98m,0000000005Hz,0000085650c,0000000.186s, 016.1C,00002191
2016-04-17 21:55:36 r, 17.74m,0000000007Hz,0000068157c,0000000.148s, 016.1C,00002191
2016-04-17 22:05:34 r, 17.90m,0000000006Hz,0000079642c,0000000.173s, 015.7C,00002191
2016-04-17 22:15:34 r, 17.94m,0000000006Hz,0000082874c,0000000.180s, 015.7C,00002191
2016-04-17 22:25:35 r, 18.06m,0000000005Hz,0000091841c,0000000.199s, 015.7C,00002191
2016-04-17 22:35:35 r, 17.99m,0000000006Hz,0000086368c,0000000.187s, 015.7C,00002191
2016-04-17 22:45:34 r, 18.10m,0000000005Hz,0000094822c,0000000.206s, 015.7C,00002191
2016-04-17 22:55:36 r, 18.18m,0000000005Hz,0000102708c,0000000.223s, 015.7C,00002191
2016-04-17 23:05:35 r, 18.20m,0000000004Hz,0000104613c,0000000.227s, 015.7C,00002191
2016-04-17 23:15:35 r, 18.19m,0000000004Hz,0000103791c,0000000.225s, 015.7C,00002191
2016-04-17 23:25:34 r, 18.26m,0000000004Hz,0000110337c,0000000.239s, 015.7C,00002191
2016-04-17 23:35:34 r, 18.37m,0000000004Hz,0000121975c,0000000.265s, 015.7C,00002191
2016-04-17 23:45:35 r, 18.39m,0000000004Hz,0000124829c,0000000.271s, 015.7C,00002191
2016-04-17 23:55:34 r, 18.45m,0000000003Hz,0000131284c,0000000.285s, 015.7C,00002191
